• En España
  • Lista de países
  • Para 7 días
  • Temperatura del agua
  • Mapa Satelital
  • El tiempo en el mapa
  • Informadores
  • user-avatar
    Iniciar sesión

    Tiempo cada hora Katerevo

    Hoy, 19 Abril, Jueves

    Tiempo Temperatura Precipitaciones Viento Presión Humedad
    00:00 +5°C° 0,1 mm 6 mps 738 mmHg 85%
    01:00 +6°C° 0,3 mm 5 mps 737 mmHg 86%
    02:00 +5°C° 0,3 mm 5 mps 737 mmHg 88%
    03:00 +4°C° 0 mm 6 mps 736 mmHg 89%
    04:00 +4°C° 0,6 mm 6 mps 735 mmHg 90%
    05:00 +4°C° 0,6 mm 6 mps 735 mmHg 90%
    06:00 +4°C° 0,6 mm 6 mps 734 mmHg 91%
    07:00 +4°C° 0,4 mm 6 mps 734 mmHg 90%
    08:00 +5°C° 0,4 mm 7 mps 734 mmHg 89%
    09:00 +5°C° 0,4 mm 7 mps 734 mmHg 88%
    10:00 +6°C° 0,5 mm 7 mps 733 mmHg 87%
    11:00 +6°C° 0,5 mm 7 mps 733 mmHg 86%
    12:00 +6°C° 0,5 mm 7 mps 733 mmHg 84%
    13:00 +8°C° 0,4 mm 7 mps 733 mmHg 79%
    14:00 +9°C° 0,4 mm 8 mps 733 mmHg 74%
    15:00 +10°C° 0,4 mm 8 mps 733 mmHg 69%
    16:00 +9°C° 0,4 mm 7 mps 734 mmHg 71%
    17:00 +9°C° 0,4 mm 7 mps 734 mmHg 72%
    18:00 +9°C° 0,4 mm 6 mps 734 mmHg 73%
    19:00 +8°C° 0,2 mm 6 mps 735 mmHg 76%
    20:00 +8°C° 0,2 mm 6 mps 735 mmHg 78%
    21:00 +7°C° 0,2 mm 6 mps 736 mmHg 81%
    22:00 +6°C° 0,1 mm 7 mps 736 mmHg 81%
    23:00 +6°C° 0,1 mm 7 mps 737 mmHg 81%

    Mañana, 20 Abril, Viernes

    Tiempo Temperatura Precipitaciones Viento Presión Humedad
    00:00 +6°C° 0,1 mm 7 mps 737 mmHg 81%
    01:00 +6°C° 0,1 mm 7 mps 737 mmHg 81%
    02:00 +5°C° 0,1 mm 8 mps 738 mmHg 82%
    03:00 +5°C° 0,1 mm 8 mps 738 mmHg 82%
    04:00 +4°C° 0 mm 8 mps 739 mmHg 83%
    05:00 +4°C° 0 mm 8 mps 739 mmHg 83%
    06:00 +3°C° 0 mm 7 mps 740 mmHg 83%
    07:00 +4°C° 0 mm 8 mps 740 mmHg 80%
    08:00 +4°C° 0 mm 8 mps 741 mmHg 76%
    09:00 +5°C° 0 mm 8 mps 741 mmHg 73%
    10:00 +6°C° 0 mm 8 mps 742 mmHg 70%
    11:00 +6°C° 0 mm 8 mps 742 mmHg 68%
    12:00 +7°C° 0 mm 8 mps 743 mmHg 65%
    13:00 +8°C° 0 mm 7 mps 743 mmHg 62%
    14:00 +9°C° 0 mm 7 mps 743 mmHg 59%
    15:00 +10°C° 0 mm 6 mps 743 mmHg 56%
    16:00 +10°C° 0 mm 6 mps 743 mmHg 58%
    17:00 +9°C° 0 mm 5 mps 744 mmHg 59%
    18:00 +9°C° 0 mm 5 mps 744 mmHg 60%
    19:00 +8°C° 0 mm 4 mps 744 mmHg 64%
    20:00 +8°C° 0 mm 3 mps 744 mmHg 68%
    21:00 +8°C° 0 mm 2 mps 744 mmHg 72%
    22:00 +7°C° 0 mm 2 mps 744 mmHg 75%
    23:00 +6°C° 0 mm 2 mps 744 mmHg 78%

    Pasado mañana, 21 Abril, Sábado

    Tiempo Temperatura Precipitaciones Viento Presión Humedad
    00:00 +6°C° 0 mm 1 mps 744 mmHg 81%
    01:00 +5°C° 0 mm 2 mps 744 mmHg 82%
    02:00 +5°C° 0 mm 2 mps 743 mmHg 84%
    03:00 +4°C° 0 mm 2 mps 743 mmHg 85%
    04:00 +3°C° 0 mm 3 mps 742 mmHg 86%
    05:00 +3°C° 0 mm 4 mps 742 mmHg 87%
    06:00 +3°C° 0 mm 4 mps 741 mmHg 88%
    07:00 +5°C° 0 mm 5 mps 740 mmHg 82%
    08:00 +5°C° 0 mm 6 mps 739 mmHg 77%
    09:00 +7°C° 0 mm 8 mps 738 mmHg 72%
    10:00 +10°C° 0 mm 8 mps 737 mmHg 68%
    11:00 +11°C° 0 mm 9 mps 736 mmHg 64%
    12:00 +13°C° 0 mm 10 mps 735 mmHg 60%
    13:00 +14°C° 0 mm 10 mps 734 mmHg 58%
    14:00 +16°C° 0 mm 10 mps 733 mmHg 57%
    15:00 +17°C° 0 mm 10 mps 732 mmHg 55%
    16:00 +16°C° 0,4 mm 10 mps 731 mmHg 60%
    17:00 +16°C° 0,4 mm 9 mps 730 mmHg 64%
    18:00 +15°C° 0,4 mm 9 mps 730 mmHg 69%
    19:00 +12°C° 0,6 mm 8 mps 730 mmHg 70%
    20:00 +11°C° 0,6 mm 8 mps 730 mmHg 71%
    21:00 +9°C° 0,6 mm 8 mps 730 mmHg 72%
    22:00 +7°C° 0 mm 8 mps 730 mmHg 72%
    23:00 +6°C° 0 mm 7 mps 730 mmHg 72%

    22 Abril, Domingo

    Tiempo Temperatura Precipitaciones Viento Presión Humedad
    00:00 +5°C° 0 mm 7 mps 730 mmHg 72%
    01:00 +5°C° 0 mm 7 mps 730 mmHg 74%
    02:00 +4°C° 0 mm 7 mps 731 mmHg 76%
    03:00 +4°C° 0 mm 7 mps 731 mmHg 78%
    04:00 +3°C° 0 mm 7 mps 731 mmHg 79%
    05:00 +3°C° 0 mm 7 mps 731 mmHg 79%
    06:00 +3°C° 0 mm 7 mps 732 mmHg 79%
    07:00 +2°C° 0 mm 8 mps 732 mmHg 75%
    08:00 +2°C° 0 mm 8 mps 733 mmHg 72%
    09:00 +4°C° 0 mm 8 mps 733 mmHg 68%
    10:00 +4°C° 0 mm 8 mps 733 mmHg 66%
    11:00 +5°C° 0 mm 8 mps 734 mmHg 64%
    12:00 +5°C° 0 mm 7 mps 734 mmHg 62%
    13:00 +6°C° 0 mm 7 mps 734 mmHg 59%
    14:00 +6°C° 0 mm 7 mps 735 mmHg 56%
    15:00 +8°C° 0 mm 7 mps 735 mmHg 53%
    16:00 +8°C° 0 mm 6 mps 735 mmHg 54%
    17:00 +8°C° 0 mm 6 mps 735 mmHg 54%
    18:00 +8°C° 0 mm 5 mps 735 mmHg 54%
    19:00 +6°C° 0 mm 4 mps 736 mmHg 59%
    20:00 +5°C° 0 mm 3 mps 736 mmHg 64%
    21:00 +5°C° 0 mm 2 mps 736 mmHg 70%
    22:00 +5°C° 0,1 mm 2 mps 737 mmHg 70%
    23:00 +4°C° 0,1 mm 2 mps 737 mmHg 71%

    23 Abril, Lunes

    Tiempo Temperatura Precipitaciones Viento Presión Humedad
    00:00 +4°C° 0,1 mm 2 mps 737 mmHg 72%
    01:00 +3°C° 0,2 mm 2 mps 737 mmHg 73%
    02:00 +3°C° 0,2 mm 2 mps 738 mmHg 74%
    03:00 +2°C° 0,2 mm 2 mps 738 mmHg 75%
    04:00 +2°C° 0 mm 2 mps 738 mmHg 74%
    05:00 0°C° 0 mm 3 mps 739 mmHg 73%
    06:00 0°C° 0 mm 3 mps 739 mmHg 73%
    07:00 0°C° 0 mm 3 mps 739 mmHg 67%
    08:00 +1°C° 0 mm 3 mps 740 mmHg 61%
    09:00 +1°C° 0 mm 4 mps 740 mmHg 55%
    10:00 +3°C° 0 mm 4 mps 740 mmHg 51%
    11:00 +4°C° 0 mm 3 mps 740 mmHg 47%
    12:00 +4°C° 0 mm 3 mps 741 mmHg 43%
    13:00 +5°C° 0 mm 3 mps 741 mmHg 42%
    14:00 +5°C° 0 mm 3 mps 741 mmHg 41%
    15:00 +7°C° 0 mm 3 mps 741 mmHg 39%
    16:00 +7°C° 0 mm 3 mps 741 mmHg 40%
    17:00 +7°C° 0 mm 3 mps 741 mmHg 41%
    18:00 +7°C° 0 mm 2 mps 741 mmHg 41%
    19:00 +6°C° 0 mm 2 mps 741 mmHg 45%
    20:00 +5°C° 0 mm 1 mps 742 mmHg 48%
    21:00 +3°C° 0 mm 0 mps 742 mmHg 52%
    22:00 +4°C° 0 mm 1 mps 742 mmHg 54%
    23:00 +4°C° 0 mm 1 mps 742 mmHg 55%

    24 Abril, Martes

    Tiempo Temperatura Precipitaciones Viento Presión Humedad
    00:00 +3°C° 0 mm 1 mps 742 mmHg 57%
    01:00 +3°C° 0 mm 1 mps 742 mmHg 59%
    02:00 +1°C° 0 mm 2 mps 742 mmHg 61%
    03:00 +1°C° 0 mm 2 mps 742 mmHg 63%
    04:00 +1°C° 0 mm 2 mps 742 mmHg 65%
    05:00 +1°C° 0 mm 2 mps 742 mmHg 66%
    06:00 +1°C° 0 mm 2 mps 742 mmHg 67%
    07:00 +3°C° 0 mm 2 mps 742 mmHg 62%
    08:00 +4°C° 0 mm 3 mps 742 mmHg 56%
    09:00 +5°C° 0 mm 3 mps 742 mmHg 51%
    10:00 +7°C° 0 mm 3 mps 741 mmHg 48%
    11:00 +7°C° 0 mm 4 mps 741 mmHg 46%
    12:00 +8°C° 0 mm 4 mps 741 mmHg 44%
    13:00 +10°C° 0 mm 4 mps 740 mmHg 45%
    14:00 +10°C° 0 mm 4 mps 740 mmHg 45%
    15:00 +11°C° 0 mm 4 mps 739 mmHg 46%
    16:00 +10°C° 0,1 mm 4 mps 739 mmHg 50%
    17:00 +10°C° 0,1 mm 4 mps 738 mmHg 54%
    18:00 +9°C° 0,1 mm 5 mps 738 mmHg 58%
    19:00 +8°C° 0,4 mm 5 mps 737 mmHg 60%
    20:00 +7°C° 0,4 mm 6 mps 737 mmHg 63%
    21:00 +5°C° 0,4 mm 6 mps 736 mmHg 65%
    22:00 +5°C° 1,2 mm 6 mps 736 mmHg 70%
    23:00 +4°C° 1,2 mm 6 mps 735 mmHg 74%
    Mostrar más